Home > Weather > Huelva > Past weeks

Flag for Spain Past Weather in Huelva, Spain — Yesterday and Last 2 Weeks

Now
84 °F

Passing clouds.


Feels Like: 88 °F
Forecast: 70 / 95 °F
Wind: 1 mph from North

Location: Rota Airport

Current Time: Aug 28, 2016 at 12:38:55 PM

Latest Report: Aug 28, 2016 at 12:00 PM


Visibility: N/A

Pressure: 30.09 "Hg

Humidity: 62%

Dew Point: 70 °F

Location of HuelvaLocation

Past Weather in Huelva — Graph

°F

Huelva Temperature Yesterday

Maximum temperature yesterday: 90 °F (at 12:00 PM)
Minimum temperature yesterday: 75 °F (at 4:00 AM)
Average temperature yesterday: 82 °F

High & Low Weather Summary for the Past Weeks

 TemperatureHumidityPressure
High93 °F (Aug 22, 3:00 PM)94% (Aug 17, 12:00 AM)30.09 "Hg (Aug 17, 12:00 AM)
Low63 °F (Aug 21, 8:00 AM)28% (Aug 13, 2:00 PM)29.83 "Hg (Aug 25, 5:00 PM)
Average80 °F59%29.98 "Hg
* Reported Aug 13 11:00 AM — Aug 28 11:00 AM, Huelva, Weather by CustomWeather, © 2016

Note: Actual official high and low records may vary slightly from our data, if they occured in-between our weather recording intervals... More about our weather records

Advertising

Huelva Weather History for the Previous 24 Hours

Scroll right to see more
 ConditionsComfort  
Time TempWeatherWind HumidityBarometerVisibility
11:00 AM
Sun, Aug 28
82 °FPassing clouds.1 mph66%30.09 "HgN/A
10:00 AM81 °FPassing clouds.No wind70%30.09 "HgN/A
9:00 AM75 °FPassing clouds.No wind83%30.07 "HgN/A
8:00 AM73 °FPassing clouds.No wind83%30.07 "HgN/A
7:00 AM73 °FPassing clouds.No wind83%30.04 "HgN/A
6:00 AM75 °FPassing clouds.No wind83%30.04 "HgN/A
5:00 AM75 °FPassing clouds.1 mph83%30.04 "HgN/A
4:00 AM75 °FPassing clouds.6 mph83%30.04 "HgN/A
3:00 AM75 °FPassing clouds.8 mph89%30.04 "HgN/A
2:00 AM75 °FPassing clouds.8 mph89%30.04 "HgN/A
1:00 AM77 °FPassing clouds.5 mph83%30.04 "HgN/A
12:00 AM77 °FClear.1 mph83%30.04 "Hg10 mi
11:00 PM
Sat, Aug 27
77 °FClear.2 mph79%30.04 "Hg10 mi
10:00 PM82 °FClear.2 mph58%30.01 "Hg10 mi
9:00 PM84 °FSunny.2 mph55%30.01 "Hg10 mi
8:00 PM86 °FPassing clouds.6 mph55%29.98 "HgN/A
7:00 PM84 °FPassing clouds.6 mph62%29.98 "HgN/A
6:00 PM86 °FPassing clouds.5 mph59%29.98 "HgN/A
5:00 PM88 °FPassing clouds.6 mph59%29.98 "HgN/A
4:00 PM88 °FPassing clouds.6 mph55%30.01 "HgN/A
3:00 PM84 °FPassing clouds.7 mph62%30.01 "HgN/A
2:00 PM90 °FPassing clouds.6 mph49%30.01 "HgN/A
1:00 PM90 °FPassing clouds.9 mph46%30.04 "HgN/A
12:00 PM90 °FPassing clouds.9 mph41%30.01 "HgN/A
Weather by CustomWeather, © 2016

See weather overviewHow to use our weather pages